Total_Precipitation_Accumulation
0.06 0.22 0.52 0.84 1.40 1.69 1.33 0.79 0.50 0.30 0.35 0.44 0.54 0.64 0.65 0.76 1.07 1.75 1.48 1.01 0.87 1.08 1.13 1.20 1.34 1.26 1.42 1.62 1.71 1.85 2.07 2.14 2.07 1.79 1.80 2.03 2.29 2.47 2.56 2.56 2.60 2.78 3.14 3.36 3.25 3.00 2.88 2.72 2.60
0.15 0.46 0.76 1.14 1.60 1.36 1.07 0.64 0.36 0.26 0.29 0.40 0.47 0.44 0.45 0.45 0.48 0.74 1.07 0.89 0.76 0.81 0.85 1.01 1.21 1.24 1.28 1.43 1.51 1.64 1.81 1.93 1.91 1.75 1.71 1.94 2.23 2.41 2.58 2.65 2.61 2.74 3.02 3.35 3.26 3.05 2.90 2.72 2.48
0.31 0.53 0.88 1.25 1.20 0.83 0.67 0.41 0.30 0.30 0.37 0.46 0.45 0.40 0.44 0.59 0.50 0.61 0.80 0.72 0.68 0.71 0.80 1.09 1.22 1.20 1.20 1.27 1.38 1.52 1.61 1.65 1.70 1.68 1.78 2.01 2.26 2.47 2.54 2.51 2.53 2.62 2.83 3.07 3.17 2.88 2.52 2.38 2.31
0.37 0.64 0.85 0.93 0.68 0.47 0.39 0.31 0.26 0.26 0.40 0.56 0.61 0.48 0.41 0.47 0.47 0.52 0.58 0.58 0.66 0.78 0.85 1.07 1.23 1.14 1.17 1.22 1.25 1.38 1.48 1.57 1.71 1.74 1.83 2.14 2.32 2.41 2.41 2.21 2.19 2.35 2.50 2.69 2.77 2.51 2.19 2.17 2.30
0.46 0.76 0.93 0.66 0.43 0.35 0.31 0.26 0.24 0.26 0.35 0.58 0.68 0.67 0.65 0.63 0.47 0.47 0.56 0.57 0.59 0.69 0.86 1.05 1.13 1.02 1.02 1.04 1.15 1.35 1.48 1.61 1.77 1.81 1.93 2.17 2.35 2.42 2.39 2.20 2.33 2.34 2.46 2.62 2.49 2.33 2.26 2.44 2.51
0.61 0.79 0.67 0.49 0.31 0.24 0.24 0.24 0.28 0.31 0.46 0.57 0.59 0.68 0.85 0.79 0.61 0.50 0.58 0.60 0.62 0.64 0.81 1.02 1.07 0.99 0.99 1.09 1.22 1.35 1.48 1.58 1.77 1.81 1.85 2.05 2.35 2.39 2.23 2.20 2.33 2.24 2.40 2.49 2.34 2.17 2.15 2.34 2.51
0.49 0.54 0.42 0.40 0.32 0.25 0.19 0.21 0.33 0.37 0.63 0.77 0.81 0.78 0.98 1.01 0.74 0.64 0.71 0.69 0.72 0.69 0.82 0.96 1.03 1.01 1.02 1.14 1.36 1.50 1.56 1.67 1.80 1.77 1.79 1.99 2.22 2.33 2.25 2.22 2.28 2.28 2.35 2.19 2.08 2.12 2.05 2.11 2.38
0.26 0.31 0.28 0.28 0.28 0.21 0.17 0.20 0.29 0.36 0.55 0.62 0.75 0.90 1.14 1.01 0.76 0.75 0.78 0.82 0.87 0.89 0.96 0.96 1.02 0.98 0.96 1.10 1.49 1.72 1.78 1.85 1.90 1.91 1.94 2.16 2.34 2.39 2.30 2.12 2.20 2.23 2.15 2.06 2.07 2.08 2.07 2.14 2.39
0.21 0.23 0.23 0.19 0.17 0.17 0.13 0.18 0.23 0.37 0.47 0.50 0.63 0.79 1.00 0.81 0.76 0.90 1.08 1.19 1.17 1.13 1.22 1.14 1.18 1.06 1.11 1.18 1.47 1.78 1.88 2.01 2.18 2.23 2.31 2.59 2.76 2.57 2.60 2.27 2.39 2.34 2.26 2.28 2.36 2.35 2.36 2.32 2.54
0.18 0.17 0.13 0.09 0.08 0.12 0.13 0.18 0.25 0.37 0.75 0.94 1.07 0.98 0.85 0.86 0.91 1.00 1.20 1.38 1.38 1.35 1.20 1.22 1.33 1.27 1.39 1.40 1.63 2.15 2.18 2.33 2.57 2.65 2.56 2.83 2.92 2.93 2.50 2.61 2.91 2.93 2.92 2.91 3.01 3.10 2.94 2.53 2.43
0.15 0.10 0.07 0.06 0.04 0.06 0.11 0.17 0.18 0.33 0.89 1.42 1.53 1.19 0.87 0.99 1.13 1.29 1.41 1.52 1.41 1.44 1.30 1.43 1.57 1.70 1.77 2.04 1.84 2.02 2.41 2.66 2.78 2.92 3.02 3.11 2.82 2.71 2.59 2.81 3.17 3.28 3.24 3.15 3.25 3.44 3.07 2.87 2.93
0.08 0.06 0.06 0.05 0.04 0.06 0.09 0.16 0.20 0.35 0.83 1.23 1.24 1.00 0.84 1.06 1.24 1.54 1.72 1.88 1.95 1.98 1.96 1.93 2.12 2.35 2.37 2.15 2.12 2.01 2.12 2.34 2.71 3.00 2.89 2.98 3.17 3.15 2.94 3.00 3.04 3.12 3.24 3.46 3.28 3.39 3.41 3.35 3.12
0.06 0.05 0.05 0.05 0.05 0.07 0.12 0.15 0.25 0.47 0.57 0.64 0.74 0.77 0.87 1.17 1.49 1.86 2.09 2.31 2.46 2.76 2.90 2.87 2.86 2.81 2.86 2.85 2.71 2.29 2.44 2.40 2.50 2.93 2.96 2.94 3.19 3.31 3.22 3.13 3.23 2.90 2.95 3.29 3.55 3.37 3.46 3.56 3.38
0.05 0.06 0.05 0.06 0.07 0.08 0.11 0.17 0.30 0.55 0.59 0.62 0.68 0.71 0.84 1.26 1.81 2.31 2.42 2.55 2.84 3.51 4.01 3.80 3.64 3.40 3.29 3.32 3.27 3.20 2.89 2.78 2.60 2.88 3.00 3.10 3.34 3.46 3.41 3.25 3.21 2.86 2.77 3.03 3.31 3.30 3.51 3.50 3.44
0.08 0.08 0.10 0.10 0.09 0.15 0.18 0.34 0.49 0.67 0.66 0.65 0.75 0.79 0.86 1.24 1.72 2.46 2.83 3.08 3.38 4.14 4.75 4.54 4.42 4.40 4.18 4.07 3.72 3.32 3.10 2.91 3.10 3.28 3.40 3.43 3.46 3.62 3.57 3.42 3.18 3.03 3.08 3.19 3.20 3.29 3.64 3.42 3.28
0.13 0.15 0.26 0.21 0.15 0.19 0.28 0.69 0.76 0.77 0.69 0.74 0.94 0.88 0.88 1.20 1.73 2.44 3.06 3.56 3.91 4.32 4.78 5.16 4.83 5.23 5.15 4.90 4.43 3.91 3.69 3.68 3.64 3.56 3.69 3.47 3.39 3.42 3.62 3.32 3.02 3.16 3.31 3.43 3.42 3.42 3.61 3.66 3.73
0.18 0.24 0.36 0.33 0.22 0.20 0.30 0.82 0.87 0.66 0.67 0.82 0.99 1.00 1.04 1.30 1.68 2.19 2.84 3.40 3.98 4.59 5.14 5.64 5.86 5.96 5.55 5.21 4.81 4.53 4.30 4.08 3.68 3.29 3.21 3.08 2.82 2.69 2.86 2.77 2.72 2.76 2.94 2.90 2.70 3.09 3.33 3.55 3.73
0.18 0.21 0.28 0.43 0.33 0.24 0.33 0.66 0.78 0.69 0.67 0.85 1.08 1.05 1.12 1.34 1.73 2.15 2.71 3.19 3.85 4.70 5.55 6.01 6.19 5.82 5.42 5.05 4.60 4.43 4.13 3.84 3.50 3.09 2.81 2.62 2.54 2.31 2.45 2.31 2.29 2.44 2.69 2.77 2.86 3.09 3.02 2.94 3.09
0.13 0.19 0.24 0.34 0.28 0.26 0.40 0.65 0.76 0.78 0.81 0.95 1.13 1.13 1.18 1.30 1.69 2.17 2.70 3.20 3.86 4.77 5.73 6.15 6.00 5.41 4.93 4.49 4.03 3.72 3.44 3.25 3.13 2.81 2.45 2.39 2.36 2.32 2.53 2.28 2.50 2.49 2.59 2.62 2.56 2.68 2.64 2.38 2.51
0.14 0.21 0.24 0.31 0.26 0.30 0.44 0.68 0.88 0.98 1.05 0.98 1.03 1.16 1.13 1.30 1.75 2.27 2.87 3.26 3.59 4.12 4.89 5.26 4.98 4.34 3.70 3.45 3.36 3.24 3.19 2.87 2.67 2.58 2.50 2.21 2.21 2.23 2.25 2.38 2.18 2.23 2.39 2.31 2.30 2.59 2.56 2.26 2.33
0.14 0.18 0.24 0.29 0.25 0.35 0.50 0.93 1.20 1.22 1.00 0.80 0.72 0.87 0.91 1.03 1.55 2.28 2.82 3.11 3.37 3.57 3.57 3.72 3.65 3.19 2.86 2.76 2.77 2.78 2.93 2.74 2.47 2.38 2.29 2.05 1.96 1.90 1.99 2.01 2.07 2.21 2.14 2.22 2.27 2.32 2.43 2.38 2.21
0.14 0.11 0.13 0.19 0.29 0.51 0.58 1.34 1.59 1.34 1.11 0.87 0.70 0.71 0.76 0.94 1.40 2.15 2.43 2.55 2.60 2.68 2.49 2.49 2.61 2.48 2.45 2.36 2.40 2.31 2.18 2.19 2.10 2.08 2.03 1.98 1.86 1.77 1.67 1.74 1.86 2.02 2.01 2.26 2.02 2.07 2.30 2.39 2.15
0.13 0.10 0.11 0.19 0.33 0.51 0.71 1.20 1.62 1.44 1.26 0.94 0.70 0.65 0.74 0.83 1.10 1.43 1.50 1.64 1.72 1.79 1.82 2.00 2.29 2.36 2.27 2.22 2.34 2.36 2.07 1.94 1.86 1.90 2.00 1.94 1.83 1.70 1.54 1.62 1.81 1.93 1.96 2.04 2.03 2.27 2.23 2.15 2.12
0.09 0.13 0.19 0.34 0.53 0.92 0.93 1.10 1.55 1.37 1.10 0.76 0.63 0.63 0.57 0.60 0.79 0.98 1.04 1.11 1.18 1.22 1.34 1.57 2.02 2.24 2.11 2.07 2.11 2.07 2.01 1.98 1.89 1.84 1.87 1.83 1.77 1.76 1.74 1.68 1.79 1.81 1.83 1.86 1.93 2.10 2.11 2.09 2.15
0.10 0.15 0.41 0.84 1.28 1.39 0.89 1.03 1.37 1.02 0.74 0.56 0.46 0.48 0.51 0.64 0.71 0.82 0.98 1.04 0.95 0.92 1.06 1.27 1.61 1.76 1.72 1.78 1.89 1.96 2.03 1.99 1.84 1.79 1.73 1.69 1.57 1.64 1.80 1.79 1.82 1.86 1.90 1.85 1.94 1.98 1.95 2.00 2.10
0.12 0.14 0.31 0.59 0.73 0.86 0.87 1.31 1.43 0.83 0.56 0.44 0.41 0.41 0.54 0.62 0.59 0.63 0.73 0.73 0.71 0.78 0.87 1.04 1.21 1.31 1.40 1.50 1.70 1.84 1.86 1.84 1.80 1.91 1.79 1.65 1.48 1.45 1.61 1.76 1.77 1.74 1.69 1.72 2.11 1.93 1.85 1.98 2.06
0.11 0.12 0.14 0.19 0.30 0.63 1.02 1.27 1.16 0.76 0.50 0.39 0.39 0.38 0.48 0.50 0.44 0.44 0.50 0.54 0.59 0.76 0.86 0.93 1.03 1.14 1.25 1.35 1.59 1.72 1.72 1.68 1.73 1.81 1.73 1.57 1.57 1.50 1.57 1.56 1.72 1.79 1.71 1.73 1.95 1.94 1.90 1.99 1.98
0.09 0.10 0.11 0.15 0.33 0.62 0.98 1.38 1.31 0.98 0.69 0.58 0.45 0.38 0.44 0.45 0.39 0.42 0.47 0.54 0.55 0.60 0.77 0.88 0.94 1.08 1.23 1.30 1.35 1.39 1.53 1.51 1.51 1.46 1.45 1.52 1.55 1.55 1.62 1.64 1.61 1.66 1.74 1.83 1.96 1.87 1.81 1.93 2.02
0.09 0.08 0.10 0.12 0.19 0.42 0.81 1.10 0.86 0.72 0.58 0.59 0.54 0.49 0.49 0.50 0.48 0.46 0.53 0.55 0.55 0.57 0.72 0.84 0.88 0.97 1.06 1.07 1.09 1.20 1.29 1.29 1.27 1.27 1.25 1.36 1.42 1.47 1.49 1.52 1.57 1.56 1.65 1.90 2.18 2.07 2.02 2.05 2.11
0.09 0.08 0.09 0.13 0.15 0.23 0.49 0.69 0.50 0.53 0.48 0.54 0.58 0.61 0.62 0.63 0.61 0.59 0.64 0.60 0.64 0.66 0.70 0.79 0.76 0.78 0.83 0.90 0.94 1.01 1.14 1.17 1.16 1.19 1.33 1.42 1.41 1.37 1.29 1.34 1.39 1.36 1.48 1.74 2.05 2.21 2.27 2.34 2.32